Weather WX

World > North America > United States > Pennsylvania

Blanchard, Pennsylvania Regional Weather

Lat: 41.06N, Lon: 77.6W
Wx Zone: PAZ019
Feedback

Blanchard, PA Regional Weather

Expires:201906160100;;132688
ASUS41 KCTP 160010
RWRCTP

REGIONAL WEATHER ROUNDUP
NATIONAL WEATHER SERVICE STATE COLLEGE PA
800 PM EDT SAT JUN 15 2019

Note: "fair" indicates few or no clouds below 12,000 feet with no 
significant weather and/or obstructions to visibility.

* = STATION THAT DOES NOT REPORT PRECIPITATION /E.G. RAIN...SNOW...ETC/
    THUNDER OR FOG.


PAZ004>006-010>012-017>019-024>028-033>037-041-042-045-046-049>053-160100-
CENTRAL PENNSYLVANIA
  
CITY           SKY/WX    TMP DP  RH WIND       PRES   REMARKS
BRADFORD       LGT RAIN  61  59  93 VRB3      29.94F                  
DUBOIS         CLOUDY    65  57  75 SW8       29.95F                  
CLEARFIELD     CLOUDY    69  57  65 SW10G20   29.96F                  
JOHNSTOWN      LGT RAIN  66  56  70 SW6       30.01F                  
ALTOONA        CLOUDY    70  57  63 SW7       30.00F                  
STATE COLLEGE  MOCLDY    68  57  68 SW8       29.98F                  
WILLIAMSPORT   CLOUDY    73  52  47 S6        29.94S                  
SELINSGROVE    CLOUDY    70  60  70 S6        29.97F                  
FT INDIANTOWN  CLOUDY    72  60  67 CALM      29.99F                  
CAPITAL CITY   FAIR      74  58  57 SW3       29.98F                  
HARRISBURG     MOCLDY    73  60  63 CALM      29.98S                  
YORK           FAIR      74  55  51 VRB5      29.99F                  
$$


SKY/WX - Weather  TMP - Temperature  DP - Dew Point  RH - Relative Humidity
WIND - Wind Direction/Speed PRES - Barometric Pressure VSB - Visibility
WCI - Wind Chill Index E13G22 Wind - East Wind 13 mph/Gusts of 22 mph